Flag Weather past 2 weeks in New City, New York, U.S.A.

Now
53 °F

Sunny.


Feels Like: 52 °F
Forecast: 36 / 53 °F
Wind: 5 mph from South

Location: Westchester County Airport

Current Time: Nov 23, 2014 at 3:30:53 PM

Latest Report: Nov 23, 2014 at 2:56 PM


Visibility: 9 mi

Pressure: 30.13 "Hg

Humidity: 34%

Dew point: 25 °F

Location of New CityLocation

Historic Weather in New City — Graph

°F

New City temperature yesterday

Maximum temperature yesterday: 42 °F (at 9:56 PM)
Minimum temperature yesterday: 23 °F (at 6:56 AM)
Average temperature yesterday: 34 °F

Past Weeks' High & Low Weather Summary

 TemperatureHumidityPressure
High62 °F (Nov 11, 12:56 PM)100% (Nov 11, 11:56 PM)30.50 "Hg (Nov 11, 11:56 PM)
Low20 °F (Nov 19, 4:56 AM)29% (Nov 18, 12:56 PM)29.50 "Hg (Nov 17, 7:56 PM)
Average39 °F59%30.07 "Hg
* Reported Nov 8 1:56 PM — Nov 23 1:56 PM, New City, Weather by CustomWeather, © 2014

Note: Actual official high and low records may vary slightly from our data, if they occured in-between our weather recording intervals... More about our weather records

Advertising

New City weather history for previous 24 hours

 ConditionsComfort  
Time TempWeatherWind HumidityBarometerVisibility
1:56 PM
Nov 23
56 °FSunny.8 mph30%30.12 "Hg10 mi
12:56 PM54 °FPassing clouds.No wind30%30.12 "Hg10 mi
11:56 AM50 °FScattered clouds.3 mph33%30.14 "Hg10 mi
10:56 AM49 °FScattered clouds.3 mph35%30.17 "Hg10 mi
9:56 AM46 °FPartly sunny.5 mph37%30.19 "Hg10 mi
8:56 AM44 °FPartly sunny.5 mph40%30.19 "Hg10 mi
7:56 AM42 °FPartly sunny.6 mph43%30.20 "Hg10 mi
6:56 AM41 °FPartly sunny.No wind45%30.18 "Hg10 mi
5:56 AM42 °FPassing clouds.No wind43%30.17 "Hg10 mi
4:56 AM42 °FPassing clouds.No wind39%30.16 "Hg10 mi
3:56 AM42 °FPassing clouds.6 mph39%30.16 "Hg10 mi
2:56 AM42 °FPassing clouds.6 mph38%30.16 "Hg10 mi
1:56 AM42 °FPassing clouds.3 mph38%30.17 "Hg10 mi
12:56 AM42 °FPassing clouds.5 mph38%30.17 "Hg10 mi
11:56 PM
Nov 22
42 °FPassing clouds.6 mph36%30.18 "Hg10 mi
10:56 PM42 °FPassing clouds.6 mph36%30.18 "Hg10 mi
9:56 PM42 °FPassing clouds.6 mph35%30.19 "Hg10 mi
8:56 PM41 °FPassing clouds.7 mph36%30.22 "Hg10 mi
7:56 PM41 °FMostly cloudy.3 mph38%30.22 "Hg10 mi
6:56 PM41 °FMostly cloudy.5 mph38%30.24 "Hg10 mi
5:56 PM40 °FOvercast.10 mph38%30.24 "Hg10 mi
4:56 PM40 °FPassing clouds.7 mph35%30.24 "Hg10 mi
3:56 PM40 °FPartly sunny.9 mph30%30.26 "Hg10 mi
Weather by CustomWeather, © 2014

See weather overviewHow to use our weather pages